Weather History for Aberdeen, SD

Change the Weather History Date:

Tuesday, April 22, 2014

  Actual Average Record
Temperature  
Mean Temperature 46 °F 48 °F  
Max Temperature 67 °F 61 °F 90 °F (1990)
Min Temperature 24 °F 34 °F 20 °F (1956)
Degree Days  
Heating Degree Days 19 18  
Month to date heating degree days 565 496  
Since 1 July heating degree days 8946 8047  
Cooling Degree Days 0 0  
Month to date cooling degree days 0 0  
Year to date cooling degree days 0 0  
Moisture  
Dew Point 29 °F    
Average Humidity 63    
Maximum Humidity 100    
Minimum Humidity 26    
Precipitation  
Precipitation T in 0.07 in 3.00 in (1904)
Month to date precipitation 0.11 1.18  
Year to date precipitation 1.32 3.36  
Snow  
Snow 0.00 in - - ()
Month to date snowfall 0.2  
Since 1 July snowfall 32.7  
Snow Depth 0.00 in    
Sea Level Pressure  
Sea Level Pressure 30.05 in    
Wind  
Wind Speed 11 mph (SE)    
Max Wind Speed 23 mph    
Max Gust Speed 30 mph    
Visibility 10 miles    
Events      
T = Trace of Precipitation, MM = Missing Value Source: NWS Daily Summary

Daily Weather History Graph

Daily Weather History Graph

Search for Another Location

Airport:

Trip Planner

Search our weather history database for the weather conditions in past years. The results will help you decide how hot, cold, wet, or windy it might be!

Date:

Astronomy

Apr. 22, 2014 Rise Set
Actual Time 6:36 AM CDT 8:28 PM CDT
Civil Twilight 6:04 AM CDT 9:00 PM CDT
Nautical Twilight 5:25 AM CDT 9:39 PM CDT
Astronomical Twilight 4:43 AM CDT 10:22 PM CDT
Moon 2:46 AM CDT (4/22) 1:12 PM CDT (4/22)
Length of Visible Light 14h 56m
Length of Day
13h 52m
Last Quarter, 46% of the Moon is Illuminated
Apr 22
Last Quarter
Apr 29
New
May 6
First Quarter
May 14
Full
May 21
Last Quarter

Hourly Weather History & Observations

Time (CDT) Temp. Windchill Dew Point Humidity Pressure Visibility Wind Dir Wind Speed Gust Speed Precip Events Conditions
12:53 AM 34.0 °F - 28.0 °F 79% 30.17 in 10.0 mi Calm Calm - N/A   Clear
1:53 AM 30.9 °F - 25.0 °F 79% 30.16 in 10.0 mi Calm Calm - N/A   Clear
2:53 AM 28.0 °F - 23.0 °F 81% 30.17 in 10.0 mi Calm Calm - N/A   Clear
3:53 AM 28.0 °F - 25.0 °F 88% 30.17 in 10.0 mi Calm Calm - N/A   Clear
4:53 AM 27.0 °F - 23.0 °F 85% 30.16 in 6.0 mi Calm Calm - N/A   Clear
5:53 AM 26.1 °F - 24.1 °F 92% 30.16 in 10.0 mi Calm Calm - N/A   Clear
6:53 AM 25.0 °F 18.1 °F 24.1 °F 96% 30.16 in 10.0 mi SE 5.8 mph - N/A   Clear
7:53 AM 34.0 °F 29.8 °F 30.0 °F 85% 30.15 in 10.0 mi SE 4.6 mph - N/A   Clear
8:53 AM 44.1 °F 39.0 °F 32.0 °F 63% 30.16 in 10.0 mi South 9.2 mph - N/A   Clear
9:53 AM 51.1 °F - 32.0 °F 48% 30.14 in 10.0 mi South 12.7 mph - N/A   Clear
10:53 AM 57.0 °F - 32.0 °F 39% 30.11 in 10.0 mi South 15.0 mph - N/A   Clear
11:53 AM 60.1 °F - 30.0 °F 32% 30.08 in 10.0 mi SSE 16.1 mph - N/A   Clear
12:53 PM 62.1 °F - 28.9 °F 29% 30.05 in 10.0 mi SE 12.7 mph - N/A   Clear
1:53 PM 66.0 °F - 30.0 °F 26% 30.01 in 10.0 mi SSE 17.3 mph 25.3 mph N/A   Clear
2:53 PM 64.9 °F - 28.9 °F 26% 29.98 in 10.0 mi SSE 17.3 mph 27.6 mph N/A   Clear
3:53 PM 64.0 °F - 28.9 °F 27% 29.97 in 10.0 mi SSE 16.1 mph - N/A   Partly Cloudy
4:53 PM 66.0 °F - 30.9 °F 27% 29.95 in 10.0 mi SE 18.4 mph 25.3 mph N/A   Scattered Clouds
5:53 PM 64.9 °F - 30.9 °F 28% 29.93 in 10.0 mi SE 17.3 mph 25.3 mph N/A   Mostly Cloudy
6:53 PM 63.0 °F - 30.9 °F 30% 29.93 in 10.0 mi SE 16.1 mph 24.2 mph N/A   Clear
7:53 PM 60.1 °F - 33.1 °F 36% 29.90 in 10.0 mi ESE 12.7 mph - N/A   Clear
8:53 PM 57.9 °F - 33.1 °F 39% 29.89 in 10.0 mi ESE 15.0 mph - N/A   Mostly Cloudy
9:53 PM 55.0 °F - 34.0 °F 45% 29.88 in 10.0 mi ESE 17.3 mph - N/A   Partly Cloudy
10:53 PM 54.0 °F - 35.1 °F 49% 29.87 in 10.0 mi ESE 13.8 mph - N/A   Mostly Cloudy
11:53 PM 54.0 °F - 36.0 °F 51% 29.86 in 10.0 mi SE 13.8 mph - N/A   Overcast